• In Österreich
  • Länderverzeichnis
  • Für 7 Tage
  • Wassertemperatur
  • Satellitenkarten
  • Wetterkarte
  • News
  • Widgets
  • user-avatar
    Anmelden

    Stündliche Wetter Fedyukovo

    Heute, 16 Juli, Montag

    Zeit Temperatur Niederschläge Wind Luftdruck Luftfeuchtigkeit
    00:00 +19°C° 0 mm 1 m/S 741 mmHg 95%
    01:00 +19°C° 0 mm 1 m/S 741 mmHg 96%
    02:00 +18°C° 0 mm 2 m/S 741 mmHg 96%
    03:00 +18°C° 0 mm 2 m/S 741 mmHg 96%
    04:00 +18°C° 0 mm 2 m/S 741 mmHg 96%
    05:00 +18°C° 0 mm 2 m/S 741 mmHg 96%
    06:00 +20°C° 0 mm 2 m/S 741 mmHg 91%
    07:00 +21°C° 0 mm 3 m/S 741 mmHg 85%
    08:00 +24°C° 0 mm 3 m/S 741 mmHg 80%
    09:00 +25°C° 0,2 mm 3 m/S 741 mmHg 73%
    10:00 +27°C° 0,2 mm 3 m/S 741 mmHg 66%
    11:00 +28°C° 0,2 mm 4 m/S 741 mmHg 59%
    12:00 +28°C° 0,5 mm 4 m/S 740 mmHg 63%
    13:00 +28°C° 0,5 mm 3 m/S 740 mmHg 68%
    14:00 +27°C° 0,5 mm 3 m/S 740 mmHg 73%
    15:00 +27°C° 0,4 mm 3 m/S 740 mmHg 75%
    16:00 +27°C° 0,4 mm 3 m/S 740 mmHg 77%
    17:00 +26°C° 0,4 mm 2 m/S 740 mmHg 79%
    18:00 +25°C° 0,1 mm 2 m/S 740 mmHg 81%
    19:00 +24°C° 0,1 mm 2 m/S 740 mmHg 83%
    20:00 +23°C° 0,1 mm 2 m/S 740 mmHg 85%
    21:00 +21°C° 0 mm 2 m/S 740 mmHg 86%
    22:00 +20°C° 0 mm 3 m/S 740 mmHg 86%
    23:00 +19°C° 0 mm 3 m/S 740 mmHg 87%

    Morgen, 17 Juli, Dienstag

    Zeit Temperatur Niederschläge Wind Luftdruck Luftfeuchtigkeit
    00:00 +19°C° 0 mm 3 m/S 740 mmHg 87%
    01:00 +19°C° 0 mm 3 m/S 740 mmHg 88%
    02:00 +18°C° 0 mm 3 m/S 740 mmHg 88%
    03:00 +18°C° 0 mm 3 m/S 740 mmHg 88%
    04:00 +19°C° 0 mm 3 m/S 740 mmHg 88%
    05:00 +19°C° 0 mm 3 m/S 740 mmHg 87%
    06:00 +21°C° 0 mm 4 m/S 739 mmHg 81%
    07:00 +22°C° 0 mm 4 m/S 739 mmHg 74%
    08:00 +25°C° 0 mm 5 m/S 739 mmHg 67%
    09:00 +26°C° 0 mm 5 m/S 739 mmHg 62%
    10:00 +28°C° 0 mm 5 m/S 739 mmHg 57%
    11:00 +29°C° 0 mm 5 m/S 739 mmHg 52%
    12:00 +29°C° 0 mm 5 m/S 738 mmHg 51%
    13:00 +30°C° 0 mm 5 m/S 738 mmHg 50%
    14:00 +30°C° 0 mm 5 m/S 738 mmHg 49%
    15:00 +30°C° 0 mm 5 m/S 738 mmHg 51%
    16:00 +29°C° 0 mm 5 m/S 737 mmHg 53%
    17:00 +29°C° 0 mm 4 m/S 737 mmHg 55%
    18:00 +27°C° 0 mm 4 m/S 737 mmHg 62%
    19:00 +26°C° 0 mm 3 m/S 737 mmHg 69%
    20:00 +24°C° 0 mm 3 m/S 737 mmHg 75%
    21:00 +24°C° 0 mm 3 m/S 737 mmHg 78%
    22:00 +22°C° 0 mm 3 m/S 737 mmHg 80%
    23:00 +21°C° 0 mm 3 m/S 737 mmHg 82%

    übermorgen, 18 Juli, Mittwoch

    Zeit Temperatur Niederschläge Wind Luftdruck Luftfeuchtigkeit
    00:00 +21°C° 0 mm 3 m/S 737 mmHg 85%
    01:00 +20°C° 0 mm 3 m/S 737 mmHg 88%
    02:00 +20°C° 0 mm 3 m/S 737 mmHg 91%
    03:00 +20°C° 0,1 mm 3 m/S 737 mmHg 91%
    04:00 +20°C° 0,1 mm 3 m/S 737 mmHg 91%
    05:00 +21°C° 0,1 mm 3 m/S 737 mmHg 91%
    06:00 +21°C° 0 mm 3 m/S 737 mmHg 87%
    07:00 +22°C° 0 mm 4 m/S 737 mmHg 84%
    08:00 +23°C° 0 mm 4 m/S 737 mmHg 80%
    09:00 +25°C° 0,1 mm 4 m/S 737 mmHg 73%
    10:00 +27°C° 0,1 mm 4 m/S 737 mmHg 65%
    11:00 +28°C° 0,1 mm 4 m/S 738 mmHg 58%
    12:00 +29°C° 0,1 mm 5 m/S 737 mmHg 56%
    13:00 +29°C° 0,1 mm 5 m/S 737 mmHg 54%
    14:00 +30°C° 0,1 mm 5 m/S 737 mmHg 52%
    15:00 +29°C° 0,2 mm 4 m/S 737 mmHg 55%
    16:00 +29°C° 0,2 mm 4 m/S 737 mmHg 58%
    17:00 +28°C° 0,2 mm 4 m/S 737 mmHg 62%
    18:00 +26°C° 0,3 mm 3 m/S 737 mmHg 71%
    19:00 +24°C° 0,3 mm 3 m/S 737 mmHg 79%
    20:00 +21°C° 0,3 mm 3 m/S 737 mmHg 88%
    21:00 +20°C° 0 mm 3 m/S 737 mmHg 90%
    22:00 +20°C° 0 mm 2 m/S 737 mmHg 92%
    23:00 +19°C° 0 mm 2 m/S 737 mmHg 94%

    19 Juli, Donnerstag

    Zeit Temperatur Niederschläge Wind Luftdruck Luftfeuchtigkeit
    00:00 +19°C° 0 mm 2 m/S 737 mmHg 95%
    01:00 +18°C° 0 mm 3 m/S 737 mmHg 95%
    02:00 +18°C° 0 mm 3 m/S 737 mmHg 96%
    03:00 +18°C° 0 mm 3 m/S 737 mmHg 96%
    04:00 +18°C° 0 mm 3 m/S 737 mmHg 95%
    05:00 +18°C° 0 mm 3 m/S 737 mmHg 94%
    06:00 +19°C° 0,1 mm 3 m/S 737 mmHg 91%
    07:00 +19°C° 0,1 mm 3 m/S 738 mmHg 89%
    08:00 +20°C° 0,1 mm 3 m/S 738 mmHg 86%
    09:00 +20°C° 0,1 mm 3 m/S 738 mmHg 85%
    10:00 +20°C° 0,1 mm 3 m/S 738 mmHg 84%
    11:00 +21°C° 0,1 mm 2 m/S 738 mmHg 83%
    12:00 +23°C° 0 mm 2 m/S 738 mmHg 78%
    13:00 +24°C° 0 mm 2 m/S 738 mmHg 73%
    14:00 +25°C° 0 mm 2 m/S 738 mmHg 68%
    15:00 +25°C° 0,1 mm 2 m/S 738 mmHg 70%
    16:00 +25°C° 0,1 mm 2 m/S 738 mmHg 72%
    17:00 +26°C° 0,1 mm 2 m/S 738 mmHg 73%
    18:00 +24°C° 0,2 mm 2 m/S 738 mmHg 80%
    19:00 +23°C° 0,2 mm 2 m/S 738 mmHg 86%
    20:00 +21°C° 0,2 mm 2 m/S 738 mmHg 92%
    21:00 +21°C° 0,5 mm 1 m/S 738 mmHg 94%
    22:00 +21°C° 0,5 mm 1 m/S 738 mmHg 96%
    23:00 +20°C° 0,5 mm 1 m/S 738 mmHg 97%

    20 Juli, Freitag

    Zeit Temperatur Niederschläge Wind Luftdruck Luftfeuchtigkeit
    00:00 +20°C° 0,1 mm 1 m/S 738 mmHg 98%
    01:00 +19°C° 0,1 mm 1 m/S 738 mmHg 98%
    02:00 +19°C° 0,1 mm 1 m/S 738 mmHg 98%
    03:00 +19°C° 0 mm 1 m/S 738 mmHg 98%
    04:00 +19°C° 0 mm 1 m/S 738 mmHg 98%
    05:00 +19°C° 0 mm 1 m/S 738 mmHg 98%
    06:00 +21°C° 0 mm 1 m/S 738 mmHg 92%
    07:00 +22°C° 0 mm 1 m/S 738 mmHg 87%
    08:00 +24°C° 0 mm 1 m/S 738 mmHg 82%
    09:00 +25°C° 0,5 mm 1 m/S 738 mmHg 78%
    10:00 +26°C° 0,5 mm 1 m/S 738 mmHg 74%
    11:00 +27°C° 0,5 mm 1 m/S 738 mmHg 70%
    12:00 +27°C° 1,5 mm 1 m/S 738 mmHg 71%
    13:00 +27°C° 1,5 mm 2 m/S 738 mmHg 73%
    14:00 +28°C° 1,5 mm 2 m/S 738 mmHg 74%
    15:00 +28°C° 0,5 mm 2 m/S 738 mmHg 75%
    16:00 +28°C° 0,5 mm 2 m/S 738 mmHg 76%
    17:00 +27°C° 0,5 mm 1 m/S 738 mmHg 76%
    18:00 +26°C° 0,2 mm 1 m/S 738 mmHg 81%
    19:00 +25°C° 0,2 mm 1 m/S 738 mmHg 86%
    20:00 +23°C° 0,2 mm 1 m/S 738 mmHg 90%
    21:00 +23°C° 1,2 mm 1 m/S 738 mmHg 92%
    22:00 +22°C° 1,2 mm 1 m/S 738 mmHg 94%
    23:00 +21°C° 1,2 mm 1 m/S 738 mmHg 96%

    21 Juli, Samstag

    Zeit Temperatur Niederschläge Wind Luftdruck Luftfeuchtigkeit
    00:00 +21°C° 0,4 mm 1 m/S 738 mmHg 96%
    01:00 +21°C° 0,4 mm 1 m/S 738 mmHg 97%
    02:00 +20°C° 0,4 mm 1 m/S 738 mmHg 97%
    03:00 +20°C° 0 mm 1 m/S 738 mmHg 97%
    04:00 +20°C° 0 mm 1 m/S 738 mmHg 97%
    05:00 +21°C° 0 mm 1 m/S 738 mmHg 97%
    06:00 +22°C° 0 mm 1 m/S 738 mmHg 92%
    07:00 +24°C° 0 mm 1 m/S 738 mmHg 87%
    08:00 +25°C° 0 mm 1 m/S 738 mmHg 82%
    09:00 +27°C° 0,3 mm 1 m/S 738 mmHg 76%
    10:00 +28°C° 0,3 mm 1 m/S 738 mmHg 70%
    11:00 +29°C° 0,3 mm 1 m/S 738 mmHg 64%
    12:00 +29°C° 0,7 mm 1 m/S 738 mmHg 64%
    13:00 +30°C° 0,7 mm 1 m/S 738 mmHg 65%
    14:00 +30°C° 0,7 mm 1 m/S 738 mmHg 66%
    15:00 +29°C° 1,8 mm 1 m/S 738 mmHg 72%
    16:00 +28°C° 1,8 mm 1 m/S 738 mmHg 79%
    17:00 +27°C° 1,8 mm 1 m/S 738 mmHg 86%
    18:00 +26°C° 0,3 mm 1 m/S 738 mmHg 88%
    19:00 +25°C° 0,3 mm 1 m/S 738 mmHg 89%
    20:00 +23°C° 0,3 mm 1 m/S 738 mmHg 91%
    21:00 +23°C° 0,3 mm 1 m/S 738 mmHg 92%
    22:00 +22°C° 0,3 mm 1 m/S 738 mmHg 93%
    23:00 +22°C° 0,3 mm 1 m/S 738 mmHg 94%
    Mehr zeigen